WY1U-1 Weather Reports


time (UTC)temp
F
wind
direction
speed
knots
gust
knots
rain 1hr
in
rain 24hr
in
rain mn
in
humidity
%
barometer
mb
20260507180150 62 355 2.6 6.1 0.00 0.26 0.20 40 1008.8
20260507170150 62 356 0.9 6.1 0.00 0.29 0.20 39 1009.5
20260507160150 59 7 2.6 6.1 0.00 0.30 0.20 43 1010.1
20260507150151 57 309 2.6 7.8 0.00 0.30 0.20 44 1010.4
20260507140150 55 3 1.7 7.0 0.00 0.30 0.20 52 1010.7
20260507130150 52 298 3.5 8.7 0.00 0.30 0.20 63 1010.7
20260507110150 48 347 0.9 6.1 0.00 0.30 0.20 95 1010.0
20260507100151 49 199 0.0 0.9 0.03 0.30 0.20 95 1009.4
20260507093149 49 0 0.0 0.0 0.04 0.28 0.18 95 1009.1
20260507083149 49 348 0.0 2.6 0.03 0.24 0.14 95 1008.8
20260507080150 50 350 0.9 3.5 0.06 0.22 0.12 95 1008.9
20260507070149 52 349 0.0 1.7 0.05 0.15 0.05 95 1008.9
20260507063149 52 355 1.7 3.5 0.01 0.11 0.01 93 1008.5
20260507060149 53 6 0.9 3.5 0.00 0.09 0.00 91 1008.3
20260507050150 54 13 2.6 3.5 0.00 0.09 0.00 91 1008.7
20260507040150 55 0 0.0 0.0 0.00 0.09 0.00 95 1008.5
20260507030150 58 7 2.6 4.3 0.00 0.09 0.09 96 1008.6
20260507020155 58 183 0.0 0.0 0.00 0.09 0.09 96 1008.1
20260507000150 58 198 0.0 1.7 0.00 0.09 0.09 96 1007.9
20260506230150 58 207 0.9 2.6 0.00 0.09 0.09 96 1007.5
20260506220150 58 205 0.9 4.3 0.00 0.09 0.09 95 1007.4
20260506210150 59 205 1.7 5.2 0.01 0.09 0.09 95 1007.3
20260506200150 59 209 1.7 5.2 0.00 0.08 0.08 95 1007.8
20260506190153 59 197 2.6 7.0 0.04 0.08 0.08 95 1008.3